Home   Weather   Rotterdam   Past weeks
Flag for Netherlands

Past Weather in Rotterdam, Netherlands — Yesterday and Last 2 Weeks

Now
32 °F

Passing clouds.


Feels Like: 25 °F
Forecast: 37 / 28 °F
Wind: 8 mph from South

Location: Rotterdam Zestienhoven Airport

Current Time: Jan 21, 2019 at 11:14:37 pm

Latest Report: Jan 21, 2019 at 10:25 pm


Visibility: N/A

Pressure: 30.04 "Hg

Humidity: 87%

Dew Point: 28 °F

Location of RotterdamLocation

Past Weather in Rotterdam — Graph

°F

Rotterdam Temperature Yesterday

Maximum temperature yesterday: 36 °F (at 1:25 pm)
Minimum temperature yesterday: 21 °F (at 4:55 am)
Average temperature yesterday: 28 °F

High & Low Weather Summary for the Past Weeks

 TemperatureHumidityPressure
High50 °F (Jan 7, 9:55 pm)100% (Jan 7, 1:55 am)30.57 "Hg (Jan 7, 1:55 am)
Low19 °F (Jan 21, 2:55 am)57% (Jan 9, 3:25 pm)29.53 "Hg (Jan 16, 8:25 pm)
Average40 °F87%30.05 "Hg
* Reported Jan 6 9:25 pm — Jan 21 9:55 pm, Rotterdam. Weather by CustomWeather, © 2019

Note: Actual official high and low records may vary slightly from our data, if they occured in-between our weather recording intervals... More about our weather records

Advertising

Rotterdam Weather History for the Previous 24 Hours

Scroll right to see more
 ConditionsComfort  
Time TempWeatherWind HumidityBarometerVisibility
9:55 pm
Mon, Jan 21
34 °FPassing clouds.8 mph87%30.04 "HgN/A
9:25 pm34 °FPassing clouds.8 mph87%30.07 "HgN/A
8:55 pm34 °FOvercast.8 mph87%30.07 "HgN/A
8:25 pm34 °FPassing clouds.9 mph93%30.07 "Hg6 mi
7:55 pm34 °FPassing clouds.7 mph87%30.07 "Hg6 mi
7:25 pm34 °FPassing clouds.7 mph93%30.09 "Hg5 mi
6:55 pm34 °FClear.7 mph93%30.09 "Hg5 mi
6:25 pm34 °FClear.7 mph93%30.09 "Hg4 mi
5:55 pm34 °FClear.6 mph93%30.09 "Hg4 mi
5:25 pm36 °FClear.7 mph93%30.09 "Hg5 mi
4:55 pm36 °FPassing clouds.6 mph87%30.12 "Hg6 mi
4:25 pm37 °FPassing clouds.8 mph87%30.12 "HgN/A
3:55 pm41 °FPartly sunny.7 mph81%30.12 "HgN/A
3:25 pm41 °FPassing clouds.8 mph76%30.12 "HgN/A
2:55 pm41 °FPartly sunny.8 mph76%30.15 "HgN/A
1:55 pm41 °FClear.8 mph76%30.15 "HgN/A
1:25 pm41 °FClear.8 mph76%30.18 "HgN/A
12:55 pm41 °FClear.9 mph76%30.18 "HgN/A
12:25 pm39 °FClear.5 mph81%30.18 "HgN/A
11:55 am39 °FClear.5 mph75%30.21 "HgN/A
11:25 am37 °FClear.5 mph87%30.21 "HgN/A
10:55 am34 °FClear.5 mph87%30.21 "HgN/A
10:25 am30 °FChilly.2 mph100%30.21 "HgN/A
9:55 am25 °FCold.1 mph100%30.21 "HgN/A
9:25 am23 °FCold.1 mph100%30.21 "Hg5 mi
8:55 am21 °FCold.1 mph93%30.21 "Hg5 mi
8:25 am21 °FCold.1 mph100%30.21 "Hg6 mi
7:55 am19 °FCold.2 mph100%30.21 "Hg5 mi
7:25 am21 °FCold.1 mph93%30.21 "Hg4 mi
6:55 am21 °FCold.1 mph93%30.21 "Hg5 mi
6:25 am21 °FCold.1 mph100%30.18 "Hg4 mi
5:55 am21 °FCold.1 mph100%30.21 "HgN/A
5:25 am19 °FCold.2 mph93%30.21 "Hg6 mi
4:55 am21 °FCold.1 mph86%30.21 "Hg6 mi
4:25 am19 °FClear.2 mph93%30.21 "Hg6 mi
3:55 am19 °FCold.5 mph100%30.21 "HgN/A
3:25 am19 °FClear.2 mph100%30.21 "Hg6 mi
2:55 am19 °FClear.2 mph93%30.21 "Hg4 mi
1:55 am21 °FCold.2 mph93%30.21 "Hg4 mi
1:25 am23 °FIce fog.1 mph93%30.21 "Hg3 mi
12:55 am23 °FCold.No wind93%30.21 "Hg6 mi
12:25 am23 °FCold.1 mph93%30.21 "Hg6 mi
11:55 pm
Sun, Jan 20
25 °FPassing clouds.2 mph93%30.18 "HgN/A
11:25 pm23 °FPassing clouds.1 mph100%30.18 "HgN/A
Weather by CustomWeather, © 2019

See weather overview